Location: Newark
(32.7036°S, 144.7033°W)
Time: 09:38:51
(UTC+00:00)

Envisat - Visible Passes

Search period start: 19 November 2019 00:00
Search period end: 29 November 2019 00:00
Orbit: 764 x 766 km, 98.1° (Epoch: 18 November)

Date Brightness Start Highest point End Pass type
(mag) Time Alt. Az. Time Alt. Az. Time Alt. Az.
19 Nov 5.1 05:14:01 10° S 05:18:28 31° WSW 05:22:54 10° NW visible
21 Nov 6.0 05:40:27 10° SSW 05:43:42 17° WSW 05:46:57 10° WNW visible
22 Nov 4.6 05:02:31 10° S 05:07:16 39° WSW 05:11:59 10° NW visible
24 Nov 5.7 05:28:41 10° SSW 05:32:33 22° WSW 05:36:24 10° WNW visible
25 Nov 4.1 04:51:05 10° S 04:56:03 51° WSW 05:00:58 10° NNW visible
26 Nov 6.3 05:55:50 10° SW 05:57:44 12° WSW 05:59:38 10° W visible
27 Nov 5.3 05:17:03 10° SSW 05:21:23 28° WSW 05:25:40 10° NW visible
